TimeEDT,TemperatureF,Dew PointF,Humidity,Sea Level PressureIn,VisibilityMPH,Wind Direction,Wind SpeedMPH,Gust SpeedMPH,PrecipitationIn,Events,Conditions,WindDirDegrees,DateUTC
12:58 AM,63.5,55.9,76,30.07,10.0,West,2.3,-,N/A,,Clear,280,2013-06-15 04:58:00
1:58 AM,60.8,55.4,82,30.06,10.0,Calm,Calm,-,N/A,,Clear,0,2013-06-15 05:58:00
2:58 AM,61.0,55.0,81,30.07,10.0,Calm,Calm,-,N/A,,Clear,0,2013-06-15 06:58:00
3:58 AM,58.3,54.7,88,30.10,10.0,Calm,Calm,-,N/A,,Clear,0,2013-06-15 07:58:00
4:58 AM,57.2,55.4,94,30.09,10.0,Calm,Calm,-,N/A,,Clear,0,2013-06-15 08:58:00
5:58 AM,56.7,54.5,92,30.10,10.0,Calm,Calm,-,N/A,Fog,Shallow Fog,0,2013-06-15 09:58:00
6:58 AM,56.8,54.0,90,30.12,10.0,Calm,Calm,-,N/A,Fog,Shallow Fog,0,2013-06-15 10:58:00
7:58 AM,59.7,55.9,87,30.13,10.0,Calm,Calm,-,N/A,,Mostly Cloudy,0,2013-06-15 11:58:00
8:58 AM,66.2,57.2,73,30.14,10.0,Variable,2.3,-,N/A,,Mostly Cloudy,0,2013-06-15 12:58:00
9:58 AM,69.3,57.9,67,30.14,10.0,Variable,1.2,-,N/A,,Mostly Cloudy,0,2013-06-15 13:58:00
10:58 AM,73.8,57.4,56,30.11,10.0,WSW,4.6,-,N/A,,Mostly Cloudy,250,2013-06-15 14:58:00
11:58 AM,76.1,56.7,51,30.10,10.0,SSW,6.9,-,N/A,,Mostly Cloudy,200,2013-06-15 15:58:00
12:59 PM,78.1,56.7,48,29.88,10.0,SE,6.9,-,N/A,,Mostly Cloudy,140,2013-06-15 16:59:00
1:58 PM,79.2,57.7,48,30.05,10.0,SSE,11.5,-,N/A,,Scattered Clouds,150,2013-06-15 17:58:00
2:58 PM,78.8,56.7,46,30.05,10.0,South,12.7,-,N/A,,Scattered Clouds,190,2013-06-15 18:58:00
3:58 PM,79.5,58.1,48,30.05,10.0,South,10.4,-,N/A,,Mostly Cloudy,180,2013-06-15 19:58:00
4:58 PM,81.5,58.5,45,30.04,10.0,SW,5.8,-,N/A,,Mostly Cloudy,230,2013-06-15 20:58:00
5:58 PM,79.7,58.6,48,30.03,10.0,SSW,5.8,-,N/A,,Mostly Cloudy,200,2013-06-15 21:58:00
6:58 PM,78.3,59.5,52,30.01,10.0,SSW,6.9,-,N/A,,Mostly Cloudy,210,2013-06-15 22:58:00
7:58 PM,77.7,59.7,54,29.98,10.0,SSE,8.1,-,N/A,,Mostly Cloudy,150,2013-06-15 23:58:00
8:58 PM,76.6,60.1,56,29.97,10.0,SSE,5.8,-,N/A,,Mostly Cloudy,160,2013-06-16 00:58:00
9:58 PM,74.5,60.8,62,29.98,10.0,South,2.3,-,N/A,,Mostly Cloudy,170,2013-06-16 01:58:00
10:58 PM,73.0,61.5,67,30.00,10.0,SSW,3.5,-,N/A,,Overcast,200,2013-06-16 02:58:00
11:58 PM,71.1,61.0,70,29.99,10.0,SW,4.6,-,N/A,,Mostly Cloudy,230,2013-06-16 03:58:00